Location: Arcizac
(43.0933°N, 0.0112°E)
Time: 04:34:58
(UTC+00:00)

NOAA 12 - Pass Details

Date: 14 December 2019
Orbit: 795 x 815 km, 98.5° (Epoch: 23 January)

Event Time Altitude Azimuth Distance (km) Brightness Sun altitude
Rises 17:12:29 0° 148° (SSE) 3,319 7.2 -8.4°
Reaches altitude 10° 17:14:53 10° 143° (SE) 2,389 6.4 -8.8°
Maximum altitude 17:19:56 48° 70° (ENE) 1,052 4.3 -9.7°
Drops below altitude 10° 17:24:59 10° 358° (N) 2,392 6.4 -10.5°
Sets 17:27:23 0° 352° (N) 3,324 7.2 -10.9°
